Weather History for KOEB - October, 2013

Change the Weather History Date:

Thursday, October 10, 2013

  Actual Average (KJYM) Record (KJYM)
Temperature  
Mean Temperature 56 °F -  
Max Temperature 70 °F 60 °F 86 °F (2010)
Min Temperature 41 °F 39 °F 21 °F (1989)
Degree Days  
Heating Degree Days 10    
Growing Degree Days 6 (Base 50)    
Moisture  
Dew Point 43 °F    
Average Humidity 71    
Maximum Humidity 99    
Minimum Humidity 32    
Precipitation  
Precipitation 0.00 in - - ()
Sea Level Pressure  
Sea Level Pressure 30.17 in    
Wind  
Wind Speed 1 mph (SE)    
Max Wind Speed 8 mph    
Max Gust Speed -    
Visibility 8 miles    
Events      
Averages and records for this station are not official NWS values.
T = Trace of Precipitation, MM = Missing Value Source: NWS Daily Summary

Daily Weather History Graph

Daily Weather History Graph

Search for Another Location

Airport or City:

Trip Planner

Search our weather history database for the weather conditions in past years. The results will help you decide how hot, cold, wet, or windy it might be!

Date:

Astronomy

Oct. 10, 2013 Rise Set
Actual Time 7:47 AM EDT 7:06 PM EDT
Civil Twilight 7:19 AM EDT 7:34 PM EDT
Nautical Twilight 6:46 AM EDT 8:06 PM EDT
Astronomical Twilight 6:14 AM EDT 8:38 PM EDT
Moon 1:41 PM EDT (10/10) 11:40 PM EDT (10/10)
Length of Visible Light 12h 14m
Length of Day
11h 19m
Waxing Crescent, 35% of the Moon is Illuminated
Oct 10
Waxing Crescent
Oct 11
First Quarter
Oct 18
Full
Oct 26
Last Quarter
Nov 3
New

Hourly Weather History & Observations

Time (EDT) Temp. Windchill Dew Point Humidity Pressure Visibility Wind Dir Wind Speed Gust Speed Precip Events Conditions
12:15 AM 50.9 °F - 45.7 °F 82% 30.21 in 10.0 mi Calm Calm - N/A   Clear
12:34 AM 48.2 °F - 44.6 °F 87% 30.21 in 10.0 mi Calm Calm - N/A   Clear
12:55 AM 47.1 °F - 44.8 °F 92% 30.20 in 10.0 mi Calm Calm - N/A   Clear
1:15 AM 46.4 °F 45.2 °F 45.0 °F 95% 30.20 in 10.0 mi East 3.5 mph - N/A   Clear
1:34 AM 44.8 °F 43.3 °F 43.5 °F 95% 30.20 in 10.0 mi East 3.5 mph - N/A   Clear
1:55 AM 45.0 °F 43.5 °F 44.2 °F 97% 30.20 in 10.0 mi East 3.5 mph - N/A   Clear
2:15 AM 45.0 °F - 44.2 °F 97% 30.20 in 10.0 mi Calm Calm - N/A   Clear
2:34 AM 45.7 °F - 44.8 °F 97% 30.20 in 7.0 mi Calm Calm - N/A   Clear
2:55 AM 45.1 °F - 44.4 °F 97% 30.20 in 7.0 mi Calm Calm - N/A   Clear
3:15 AM 42.1 °F - 41.4 °F 97% 30.20 in 7.0 mi Calm Calm - N/A   Clear
3:34 AM 43.2 °F - 42.8 °F 99% 30.20 in 7.0 mi Calm Calm - N/A   Clear
3:55 AM 43.0 °F - 42.4 °F 98% 30.19 in 5.0 mi Calm Calm - N/A   Clear
4:14 AM 42.3 °F - 41.7 °F 98% 30.19 in 5.0 mi Calm Calm - N/A   Clear
4:35 AM 41.7 °F 39.8 °F 41.4 °F 99% 30.19 in 5.0 mi SE 3.5 mph - N/A   Clear
4:55 AM 41.7 °F - 41.2 °F 98% 30.19 in 4.0 mi Calm Calm - N/A   Clear
5:14 AM 41.5 °F - 41.2 °F 99% 30.19 in 4.0 mi Calm Calm - N/A   Clear
5:35 AM 41.2 °F - 40.8 °F 99% 30.20 in 3.0 mi Calm Calm - N/A   Clear
5:54 AM 42.1 °F - 41.7 °F 99% 30.20 in 4.0 mi Calm Calm - N/A   Clear
6:15 AM 42.1 °F - 41.7 °F 99% 30.20 in 4.0 mi Calm Calm - N/A   Clear
6:35 AM 42.3 °F - 41.9 °F 99% 30.20 in 3.0 mi Calm Calm - N/A   Clear
6:54 AM 42.6 °F - 42.3 °F 99% 30.20 in 2.5 mi Calm Calm - N/A   Clear
7:15 AM 41.4 °F 39.4 °F 41.0 °F 99% 30.20 in 3.0 mi ESE 3.5 mph - N/A   Clear
7:35 AM 41.4 °F - 41.0 °F 99% 30.20 in 3.0 mi Calm Calm - N/A   Clear
7:55 AM 41.7 °F - 41.2 °F 98% 30.20 in 1.2 mi Calm Calm - N/A   Mist
8:15 AM 42.1 °F - 41.7 °F 99% 30.20 in 2.0 mi Calm Calm - N/A   Clear
8:34 AM 43.5 °F - 43.2 °F 99% 30.20 in 2.0 mi Calm Calm - N/A   Clear
8:55 AM 46.0 °F - 45.7 °F 99% 30.20 in 3.0 mi Calm Calm - N/A   Clear
9:15 AM 48.9 °F - 47.7 °F 95% 30.20 in 7.0 mi Calm Calm - N/A   Clear
9:34 AM 52.3 °F - 48.6 °F 87% 30.21 in 10.0 mi Calm Calm - N/A   Clear
9:55 AM 56.1 °F - 48.9 °F 77% 30.21 in 10.0 mi Calm Calm - N/A   Clear
10:15 AM 59.0 °F - 47.1 °F 65% 30.21 in 10.0 mi Calm Calm - N/A   Clear
10:34 AM 60.8 °F - 47.8 °F 62% 30.21 in 10.0 mi ESE 3.5 mph - N/A   Clear
10:55 AM 63.1 °F - 47.3 °F 56% 30.21 in 10.0 mi Calm Calm - N/A   Clear
11:15 AM 65.1 °F - 46.6 °F 51% 30.21 in 10.0 mi SSE 3.5 mph - N/A   Clear
11:34 AM 66.2 °F - 46.6 °F 49% 30.21 in 10.0 mi South 3.5 mph - N/A   Clear
11:55 AM 67.1 °F - 43.7 °F 43% 30.21 in 10.0 mi East 6.9 mph - N/A   Clear
12:15 PM 67.6 °F - 41.9 °F 39% 30.21 in 10.0 mi East 4.6 mph - N/A   Clear
12:34 PM 67.8 °F - 41.2 °F 38% 30.20 in 10.0 mi East 5.8 mph - N/A   Clear
12:55 PM 68.0 °F - 41.4 °F 38% 30.19 in 10.0 mi Calm Calm - N/A   Clear
1:15 PM 69.1 °F - 41.2 °F 36% 30.19 in 10.0 mi East 8.1 mph - N/A   Clear
1:34 PM 69.1 °F - 41.5 °F 37% 30.18 in 10.0 mi ESE 3.5 mph - N/A   Clear
1:55 PM 69.3 °F - 41.2 °F 36% 30.18 in 10.0 mi SE 4.6 mph - N/A   Clear
2:14 PM 69.4 °F - 40.3 °F 35% 30.18 in 10.0 mi South 5.8 mph - N/A   Clear
2:35 PM 68.9 °F - 39.2 °F 34% 30.17 in 10.0 mi Calm Calm - N/A   Clear
2:55 PM 69.6 °F - 39.0 °F 33% 30.16 in 10.0 mi Calm Calm - N/A   Clear
3:14 PM 69.8 °F - 38.8 °F 32% 30.16 in 10.0 mi SSE 3.5 mph - N/A   Clear
3:35 PM 69.8 °F - 38.3 °F 32% 30.15 in 10.0 mi Calm Calm - N/A   Clear
3:55 PM 70.5 °F - 39.4 °F 32% 30.14 in 10.0 mi SSE 5.8 mph - N/A   Clear
4:14 PM 70.2 °F - 39.7 °F 33% 30.14 in 10.0 mi Calm Calm - N/A   Clear
4:35 PM 70.5 °F - 41.7 °F 35% 30.13 in 10.0 mi SSE 4.6 mph - N/A   Clear
4:54 PM 70.0 °F - 39.4 °F 33% 30.13 in 10.0 mi Calm Calm - N/A   Clear
5:15 PM 69.6 °F - 40.1 °F 34% 30.13 in 10.0 mi Calm Calm - N/A   Clear
5:35 PM 69.4 °F - 41.0 °F 36% 30.12 in 10.0 mi Calm Calm - N/A   Clear
5:54 PM 69.1 °F - 39.7 °F 34% 30.12 in 10.0 mi South 5.8 mph - N/A   Clear
6:15 PM 68.7 °F - 39.0 °F 34% 30.13 in 10.0 mi Calm Calm - N/A   Clear
6:35 PM 67.1 °F - 39.2 °F 36% 30.12 in 10.0 mi Calm Calm - N/A   Clear
6:54 PM 65.1 °F - 39.9 °F 40% 30.12 in 10.0 mi Calm Calm - N/A   Clear
7:15 PM 58.5 °F - 43.0 °F 56% 30.12 in 10.0 mi Calm Calm - N/A   Clear
7:35 PM 54.7 °F - 44.1 °F 67% 30.13 in 10.0 mi Calm Calm - N/A   Clear
7:54 PM 52.7 °F - 44.6 °F 74% 30.13 in 10.0 mi Calm Calm - N/A   Clear
8:15 PM 51.1 °F - 45.0 °F 80% 30.12 in 10.0 mi ESE 3.5 mph - N/A   Clear
8:35 PM 51.6 °F - 45.7 °F 80% 30.12 in 10.0 mi Calm Calm - N/A   Clear
8:54 PM 50.5 °F - 45.7 °F 83% 30.12 in 10.0 mi Calm Calm - N/A   Clear
9:15 PM 48.9 °F - 45.0 °F 86% 30.12 in 10.0 mi Calm Calm - N/A   Clear
9:34 PM 47.5 °F - 44.6 °F 90% 30.13 in 10.0 mi ESE 5.8 mph - N/A   Clear
9:55 PM 50.7 °F - 43.3 °F 76% 30.13 in 10.0 mi SE 4.6 mph - N/A   Clear
10:15 PM 51.8 °F - 42.4 °F 70% 30.12 in 10.0 mi SE 4.6 mph - N/A   Clear
10:34 PM 50.2 °F - 41.7 °F 73% 30.13 in 10.0 mi SE 4.6 mph - N/A   Clear
10:55 PM 49.1 °F - 41.5 °F 75% 30.13 in 10.0 mi SE 4.6 mph - N/A   Clear
11:15 PM 48.9 °F - 41.0 °F 74% 30.13 in 10.0 mi SE 4.6 mph - N/A   Clear
11:34 PM 47.1 °F - 41.0 °F 79% 30.13 in 10.0 mi SE 4.6 mph - N/A   Clear
11:55 PM 45.1 °F 43.7 °F 41.0 °F 85% 30.12 in 10.0 mi SE 3.5 mph - N/A   Clear